User: anonymous   Login
Location: Waldport
(44.4270°N, 124.0680°W)
Time: 06:00:11
(UTC-07:00)
Language:

Cosmos 1570 Rocket - Orbit

View from above orbital plane
View from above orbital plane
View from above satellite
View from above satellite

Ground track
Ground track

The orbit data is extracted from the following two-line orbital elements,

1 15032U 84056B   17145.42087111 -.00000040 +00000-0 -50660-5 0  9994
2 15032 074.0687 117.8369 0018551 284.5179 075.3915 14.34709148723380
Epoch (UTC): 25 May 2017 10:06:03
Eccentricity: 0.0018551
inclination: 74.0687°
perigee height: 763 km
apogee height: 789 km
right ascension of ascending node: 117.8369°
argument of perigee: 284.5179°
revolutions per day: 14.34709148
mean anomaly at epoch: 75.3915°
orbit number at epoch: 72338

The dashed part of the orbit path shows where the satellite is in the earth's shadow,  

DLR